User: anonymous   Login
Location: Boissi�res
(45.2500°N, 2.3667°E)
Time: 19:50:05
(UTC+00:00)
Language:

Cosmos 1689 Rocket - Orbit

View from above orbital plane
View from above orbital plane
View from above satellite
View from above satellite

Ground track
Ground track

The orbit data is extracted from the following two-line orbital elements,

1 16111U 85090B   21136.52683104  .00016030  00000-0  12213-3 0  9996
2 16111  97.4787 337.3117 0010592 104.7430 255.5008 15.72265579967203
Epoch (UTC): 16 May 2021 12:38:38
Eccentricity: 0.0010592
inclination: 97.4787°
perigee height: 345 km
apogee height: 359 km
right ascension of ascending node: 337.3117°
argument of perigee: 104.7430°
revolutions per day: 15.72265579
mean anomaly at epoch: 255.5008°
orbit number at epoch: 96720

The dashed part of the orbit path shows where the satellite is in the earth's shadow,  

DLR